Wind_Speed
7 7 7 7 7 7 6 6 6 6 7 7 9 12 14 16 16 16 17 17 16 19 22 22 24 25 27 29 25 23 21 18 17 15 16 13 11 16 18 14 11 12 12 5 2
9 10 9 9 9 9 8 8 8 7 7 7 9 10 11 14 15 15 15 16 18 18 19 20 22 25 24 26 24 23 20 18 18 18 17 14 14 19 21 18 11 11 9 10 7
11 10 11 12 12 12 12 11 11 10 9 8 9 9 10 10 12 15 15 15 17 17 17 19 20 21 22 24 23 23 20 20 18 17 16 16 17 21 23 21 10 9 9 12 13
9 10 10 10 9 10 9 8 10 12 12 12 12 12 11 10 10 13 15 15 15 17 17 16 18 19 22 25 25 25 23 21 19 17 19 20 21 22 25 24 15 10 11 13 12
11 11 12 11 11 11 10 10 10 10 11 13 14 14 13 11 12 11 13 15 15 16 17 16 17 19 21 26 27 26 25 23 23 23 23 22 24 26 26 23 18 16 15 13 12
14 15 15 16 15 14 15 13 13 13 13 12 14 15 14 14 13 12 12 13 14 15 17 17 17 19 20 23 27 28 27 26 25 25 25 27 28 27 23 16 16 18 21 19 16
15 17 17 17 17 17 17 17 17 17 17 16 15 15 14 17 14 11 11 11 13 14 17 17 17 18 18 20 25 28 29 29 28 29 30 30 29 24 22 20 22 22 20 18 18
16 17 17 17 18 18 18 19 18 18 19 19 18 18 16 17 16 14 13 13 13 14 15 17 16 15 16 18 22 24 26 29 30 32 29 28 21 20 17 17 17 20 19 16 18
17 19 19 19 20 19 18 19 19 20 20 21 20 20 19 18 18 17 15 15 14 13 13 14 15 15 14 16 19 20 22 24 24 23 23 20 17 19 19 22 22 18 18 17 18
18 19 20 19 19 18 18 17 17 19 18 19 21 22 20 19 19 19 18 16 16 13 12 14 15 17 16 18 19 20 21 20 19 18 17 17 16 21 23 23 25 20 16 11 20
19 19 19 19 18 16 16 17 17 17 17 18 19 21 22 20 21 20 20 19 17 16 14 14 16 17 21 21 21 22 21 19 18 17 17 19 21 23 24 25 28 19 16 14 13
21 21 21 22 20 19 18 18 19 17 15 16 17 20 17 19 22 22 21 21 20 18 17 15 16 21 22 23 23 23 22 21 22 21 21 26 25 26 25 25 25 20 17 16 16
23 24 23 24 23 20 20 19 17 17 17 17 17 18 18 18 25 23 23 22 21 20 19 18 19 20 23 21 21 24 23 24 27 28 28 29 28 27 25 24 22 19 19 15 12
20 22 22 23 23 20 19 17 15 15 17 17 18 17 18 17 22 21 24 21 20 22 20 20 22 20 22 22 22 21 26 30 32 31 31 30 30 26 26 25 18 13 14 14 10
21 21 21 21 21 19 18 16 15 13 17 16 16 16 16 14 18 20 19 19 22 23 19 21 22 20 19 24 23 23 27 29 32 33 33 31 32 27 27 25 18 19 18 17 13
22 23 21 19 18 16 16 17 16 16 15 13 14 14 16 15 15 18 17 16 18 19 19 21 23 23 21 25 23 23 25 25 29 33 35 33 34 34 31 27 23 21 20 18 15
22 21 21 20 18 18 18 18 16 14 14 14 17 14 12 13 14 15 16 16 17 14 16 21 24 24 22 22 21 20 22 25 27 32 34 34 38 39 36 33 28 22 19 17 16
23 22 20 20 20 20 19 18 18 16 17 18 19 17 14 11 13 13 15 15 17 19 17 13 19 22 22 24 25 25 27 27 29 31 31 33 37 39 38 33 29 26 24 21 21
22 22 21 21 22 23 22 20 20 19 18 19 19 17 16 14 14 14 14 16 18 16 15 16 15 17 20 23 27 28 30 31 31 32 30 28 29 30 30 28 25 23 24 24 23
25 22 21 20 20 24 25 24 23 22 19 18 17 17 16 17 17 18 19 20 20 19 17 19 15 19 17 18 25 29 32 35 33 35 36 34 32 27 22 22 17 13 15 18 21
26 24 22 21 20 20 23 23 23 22 22 20 18 18 17 16 18 21 22 22 24 26 27 26 23 18 20 21 22 24 29 34 40 43 43 40 37 26 20 18 17 18 18 21 23
26 25 24 24 23 22 22 21 19 20 23 24 23 20 20 19 20 20 21 23 24 25 29 31 32 32 25 26 27 26 26 32 36 40 42 43 45 32 26 16 11 14 14 19 17
27 26 26 27 26 26 26 25 25 23 25 26 25 23 23 23 24 24 26 27 28 28 28 29 34 36 30 27 31 32 33 30 36 40 43 45 46 38 30 20 16 19 18 20 17
29 30 28 29 30 29 30 30 30 28 28 30 31 31 30 28 27 28 27 29 31 31 32 32 31 32 36 30 26 33 38 40 36 41 43 45 41 35 32 28 13 18 21 23 21
30 30 30 31 33 34 34 34 34 35 34 34 35 36 34 32 32 32 32 32 32 34 34 34 34 34 35 34 30 27 32 41 44 45 47 44 42 32 31 30 26 18 22 23 26
31 30 31 31 33 34 35 36 37 36 39 38 38 39 38 37 36 36 34 33 34 36 37 37 36 34 34 35 37 35 30 33 41 41 48 47 45 32 33 33 29 25 22 23 21
33 31 32 32 32 34 36 38 38 38 38 37 38 40 41 42 41 40 40 39 39 39 39 38 38 38 38 38 38 41 30 29 37 36 42 47 47 40 33 30 30 23 21 19 18
Wind_Direction
240 246 246 251 257 258 265 275 281 290 298 307 299 281 268 262 260 258 252 249 248 248 245 242 241 243 242 241 238 239 238 236 238 243 240 247 284 298 304 312 283 300 312 268 263
247 248 252 252 254 263 267 273 275 283 296 300 292 291 286 270 262 260 256 249 248 251 249 243 243 244 243 238 235 234 234 234 235 237 246 262 280 294 298 311 313 302 291 281 286
256 259 260 260 262 267 267 269 272 274 277 283 288 299 292 287 270 259 256 251 248 249 252 244 241 244 241 234 236 231 228 231 231 240 253 266 276 285 295 304 314 293 301 290 287
267 266 265 267 269 271 275 277 277 274 270 269 272 284 294 294 277 259 254 251 250 247 250 247 245 246 238 230 236 233 230 233 232 234 244 258 273 278 283 292 302 302 285 292 296
269 272 276 273 273 274 276 276 279 279 277 270 270 275 284 291 275 273 259 255 251 249 247 246 241 242 236 231 235 237 232 235 234 236 244 260 268 272 278 290 294 296 286 283 287
274 273 271 274 273 272 273 274 275 275 274 274 273 272 273 276 280 277 272 265 254 247 243 243 242 244 239 236 237 238 236 238 241 242 247 259 270 276 278 282 281 281 281 267 274
276 274 275 275 277 277 278 278 276 275 272 269 267 269 268 268 274 274 259 262 255 249 244 245 246 245 247 239 242 242 241 242 246 252 257 261 264 272 275 273 273 277 268 254 260
274 275 275 278 279 279 279 278 278 275 274 272 270 268 267 266 266 265 256 249 251 249 243 242 247 245 249 245 243 247 247 247 250 252 255 257 259 255 258 262 262 272 255 256 269
279 281 282 284 283 284 283 283 282 276 272 272 271 268 267 264 265 263 261 255 249 248 253 244 243 242 240 244 241 238 238 239 244 247 249 250 248 255 249 251 263 261 259 275 291
278 279 280 282 284 289 290 290 286 283 280 275 268 267 265 265 263 261 258 252 252 245 241 242 237 233 232 236 236 235 238 240 239 240 247 248 251 250 254 256 260 255 259 282 306
278 279 282 285 288 290 293 298 295 291 286 281 277 273 269 269 266 260 257 252 244 242 232 230 230 231 228 232 235 233 234 236 238 240 246 253 247 249 247 248 256 257 252 266 283
284 283 284 286 289 292 295 299 299 297 292 286 281 277 274 262 258 256 254 252 247 242 235 229 230 227 230 232 233 236 236 232 235 235 243 248 249 255 255 250 254 249 249 269 273
284 284 283 285 288 290 295 299 303 301 297 291 284 281 275 261 259 258 259 258 257 250 240 235 237 238 237 240 239 240 239 238 235 239 244 248 253 256 254 254 256 254 258 254 260
292 293 291 287 285 289 294 295 299 304 296 296 292 283 276 264 264 263 262 260 256 253 243 235 235 237 242 242 237 238 236 235 240 245 248 254 258 257 258 265 272 274 265 247 255
291 291 292 290 290 289 287 291 297 301 302 298 296 284 279 273 266 268 266 265 259 260 256 246 249 246 245 245 240 238 240 241 242 244 249 252 257 258 258 264 274 276 268 258 276
298 293 294 292 288 286 286 287 292 295 297 294 291 290 281 275 268 269 271 269 273 276 258 246 246 247 241 248 247 243 250 249 249 247 249 250 248 253 258 266 266 261 255 264 281
299 293 289 290 286 282 282 280 281 289 290 292 290 284 276 274 270 266 267 263 268 272 278 267 257 258 254 254 256 246 248 251 248 245 246 246 245 253 260 265 270 266 261 267 275
294 292 286 281 276 278 277 277 276 283 277 283 288 290 283 272 270 274 275 266 260 262 249 257 264 266 263 254 250 244 242 243 244 246 246 248 251 256 261 267 269 274 276 280 293
297 292 284 278 269 266 270 271 275 273 272 277 282 285 287 292 295 293 287 282 282 278 276 253 232 250 262 261 254 246 246 248 251 255 256 256 261 267 270 273 268 265 273 284 290
294 291 282 279 275 264 265 269 271 270 269 269 272 277 285 294 296 295 300 297 297 292 284 275 255 234 241 260 261 256 248 247 248 257 260 264 263 265 272 274 264 253 256 265 276
284 284 278 273 271 270 265 262 266 267 265 266 270 270 271 270 276 283 288 291 294 296 295 295 286 260 248 240 247 257 262 256 253 256 259 262 264 261 273 284 260 265 274 280 282
277 276 271 266 265 264 263 263 258 259 264 269 271 269 270 271 274 272 276 278 277 279 284 288 288 289 283 269 251 248 258 259 262 259 257 260 264 267 269 269 259 258 257 268 282
275 269 266 262 261 261 262 260 259 259 265 270 269 269 271 271 271 278 283 285 287 284 283 286 282 284 288 284 274 260 255 257 256 259 259 258 261 264 264 250 253 259 264 271 287
274 272 265 261 258 258 261 259 260 260 263 267 268 270 271 270 273 276 281 281 284 286 286 286 287 283 285 289 280 266 265 261 255 257 261 260 264 263 266 261 240 270 270 278 281
271 267 265 264 260 259 260 261 262 263 263 265 267 268 268 269 270 273 275 276 280 283 284 285 285 285 283 287 290 286 267 259 258 257 261 261 259 260 260 259 258 224 251 273 284
267 263 261 261 263 263 264 263 264 265 267 267 267 266 265 269 272 274 274 273 278 283 281 281 282 284 285 287 289 291 289 273 267 266 259 258 259 254 254 257 257 254 237 253 277
268 266 261 262 263 265 266 266 265 266 265 266 268 268 271 271 272 274 275 274 277 279 275 277 278 282 286 288 289 287 299 285 267 271 264 255 253 253 240 244 250 242 247 254 254
Height
5858 5859 5859 5860 5860 5861 5860 5859 5858 5857 5856 5855 5856 5856 5855 5855 5856 5856 5857 5858 5858 5858 5860 5863 5864 5866 5869 5872 5876 5878 5881 5883 5885 5885 5887 5891 5895 5894 5894 5893 5892 5891 5889 5888 5888
5857 5857 5857 5857 5858 5858 5857 5857 5856 5855 5854 5854 5854 5854 5853 5853 5853 5853 5854 5854 5854 5855 5857 5859 5861 5862 5865 5868 5872 5875 5878 5880 5881 5882 5885 5889 5891 5890 5891 5891 5891 5889 5888 5887 5886
5855 5854 5855 5855 5855 5855 5855 5854 5853 5853 5852 5852 5852 5852 5851 5851 5851 5850 5850 5851 5851 5852 5853 5855 5857 5859 5862 5864 5868 5871 5874 5875 5878 5880 5882 5886 5887 5887 5887 5888 5889 5888 5886 5885 5885
5852 5853 5853 5853 5853 5853 5852 5850 5850 5850 5849 5850 5850 5849 5849 5849 5849 5847 5847 5847 5848 5849 5850 5852 5854 5855 5857 5860 5863 5866 5870 5873 5876 5878 5879 5881 5882 5885 5884 5885 5887 5887 5885 5882 5881
5851 5850 5851 5852 5851 5851 5849 5848 5847 5847 5847 5846 5846 5847 5847 5847 5845 5844 5844 5844 5844 5846 5847 5849 5851 5851 5853 5856 5859 5861 5866 5869 5871 5873 5876 5878 5880 5880 5882 5883 5884 5884 5883 5880 5878
5847 5848 5849 5850 5849 5848 5846 5845 5845 5844 5844 5843 5843 5843 5844 5844 5842 5842 5842 5842 5842 5842 5843 5845 5848 5849 5850 5853 5855 5857 5861 5865 5868 5870 5873 5874 5875 5876 5879 5881 5881 5880 5879 5878 5876
5844 5845 5845 5845 5845 5844 5843 5842 5842 5841 5841 5840 5840 5840 5840 5840 5839 5839 5839 5839 5839 5840 5841 5842 5844 5847 5849 5850 5851 5853 5857 5860 5864 5866 5868 5870 5871 5874 5875 5876 5876 5877 5875 5874 5872
5841 5841 5841 5841 5841 5840 5839 5838 5838 5838 5837 5837 5837 5836 5836 5836 5836 5836 5835 5836 5836 5837 5839 5840 5842 5844 5846 5848 5849 5851 5853 5856 5858 5859 5862 5864 5868 5868 5869 5871 5873 5872 5872 5871 5870
5838 5838 5837 5836 5837 5836 5835 5834 5833 5833 5833 5833 5833 5833 5833 5832 5832 5832 5832 5833 5833 5834 5836 5838 5839 5841 5842 5844 5845 5846 5847 5849 5852 5854 5855 5859 5862 5863 5865 5867 5869 5869 5869 5868 5867
5834 5834 5833 5833 5832 5831 5830 5830 5829 5828 5829 5828 5829 5830 5829 5829 5828 5828 5828 5829 5831 5831 5834 5835 5836 5837 5839 5840 5841 5842 5844 5846 5848 5850 5851 5854 5857 5859 5861 5863 5865 5866 5866 5865 5863
5830 5830 5829 5828 5827 5827 5827 5826 5826 5826 5825 5824 5825 5824 5825 5825 5824 5824 5825 5826 5827 5828 5830 5831 5833 5833 5833 5835 5838 5839 5841 5842 5844 5846 5848 5850 5852 5854 5856 5858 5860 5862 5862 5861 5859
5825 5825 5824 5823 5823 5822 5822 5821 5821 5821 5821 5820 5819 5819 5821 5820 5819 5820 5821 5822 5823 5824 5826 5828 5828 5827 5828 5830 5834 5836 5837 5839 5840 5841 5843 5843 5846 5848 5851 5854 5855 5856 5856 5855 5854
5820 5819 5818 5817 5817 5817 5817 5817 5816 5816 5816 5815 5814 5814 5816 5816 5814 5817 5818 5818 5819 5820 5822 5824 5824 5825 5825 5828 5830 5832 5835 5836 5835 5835 5838 5840 5842 5844 5846 5849 5850 5852 5851 5850 5849
5815 5813 5812 5812 5813 5812 5812 5812 5812 5812 5812 5812 5811 5810 5810 5812 5811 5813 5813 5816 5816 5816 5818 5819 5818 5821 5822 5823 5825 5827 5829 5829 5830 5831 5833 5835 5838 5840 5841 5843 5845 5846 5846 5845 5845
5809 5808 5806 5806 5806 5807 5807 5807 5808 5809 5809 5808 5806 5806 5806 5809 5808 5808 5810 5811 5811 5812 5816 5815 5814 5816 5819 5819 5821 5822 5822 5824 5825 5826 5828 5831 5832 5836 5837 5839 5842 5842 5842 5842 5842
5804 5803 5802 5802 5801 5802 5802 5803 5804 5806 5805 5804 5803 5803 5802 5803 5804 5804 5806 5807 5807 5809 5811 5810 5809 5810 5812 5812 5816 5818 5818 5819 5821 5822 5824 5827 5828 5829 5832 5835 5838 5839 5839 5838 5838
5799 5798 5798 5797 5797 5797 5798 5799 5801 5800 5802 5801 5799 5799 5799 5799 5800 5801 5801 5802 5803 5805 5807 5807 5807 5807 5809 5810 5812 5813 5813 5814 5817 5817 5820 5821 5822 5824 5827 5830 5833 5834 5834 5834 5833
5793 5793 5793 5793 5792 5793 5794 5795 5795 5797 5796 5796 5795 5795 5796 5796 5796 5796 5796 5798 5798 5799 5801 5803 5805 5804 5804 5805 5806 5807 5807 5808 5809 5811 5814 5814 5814 5819 5822 5824 5826 5827 5828 5828 5827
5787 5787 5787 5787 5787 5787 5788 5789 5790 5791 5792 5791 5791 5791 5791 5791 5792 5792 5792 5793 5793 5794 5796 5797 5800 5800 5800 5800 5801 5802 5803 5804 5803 5805 5806 5809 5811 5813 5815 5818 5820 5822 5822 5823 5822
5780 5781 5781 5781 5781 5782 5783 5783 5784 5785 5786 5787 5786 5787 5787 5786 5787 5787 5787 5787 5787 5788 5789 5790 5793 5795 5796 5797 5796 5796 5798 5799 5799 5799 5800 5802 5804 5807 5810 5812 5814 5816 5817 5818 5817
5774 5774 5775 5775 5776 5777 5776 5776 5777 5779 5781 5781 5782 5782 5783 5783 5783 5782 5782 5782 5781 5780 5781 5782 5784 5790 5790 5790 5791 5792 5791 5793 5794 5794 5793 5795 5797 5803 5806 5808 5809 5811 5812 5812 5812
5766 5767 5768 5768 5770 5770 5770 5771 5772 5773 5775 5776 5776 5776 5777 5777 5777 5778 5778 5777 5778 5778 5776 5776 5776 5777 5783 5782 5783 5784 5785 5785 5785 5786 5787 5787 5788 5798 5801 5803 5804 5806 5807 5807 5807
5757 5759 5759 5760 5762 5763 5764 5764 5765 5766 5767 5768 5769 5770 5770 5771 5771 5771 5770 5771 5770 5771 5772 5772 5770 5769 5773 5776 5774 5776 5776 5776 5777 5777 5777 5779 5782 5790 5794 5795 5799 5801 5802 5802 5802
5750 5749 5751 5751 5753 5754 5755 5756 5758 5758 5758 5759 5760 5761 5762 5763 5763 5763 5764 5763 5762 5762 5763 5763 5763 5763 5762 5764 5767 5768 5768 5768 5769 5769 5770 5770 5774 5783 5787 5790 5791 5795 5796 5796 5797
5741 5741 5740 5742 5744 5745 5746 5748 5748 5749 5749 5749 5751 5752 5753 5754 5755 5755 5755 5755 5755 5754 5753 5754 5755 5754 5753 5753 5754 5757 5758 5758 5758 5761 5758 5765 5767 5775 5780 5782 5785 5784 5787 5790 5791
5731 5731 5731 5733 5733 5734 5736 5738 5738 5738 5739 5739 5740 5741 5742 5743 5745 5745 5746 5746 5746 5745 5744 5744 5743 5744 5745 5744 5743 5745 5748 5746 5748 5750 5749 5753 5758 5766 5771 5774 5777 5779 5780 5781 5783
5721 5721 5722 5723 5724 5725 5725 5726 5727 5727 5728 5729 5730 5730 5731 5732 5732 5733 5734 5735 5735 5736 5734 5734 5733 5733 5734 5734 5733 5735 5739 5738 5737 5738 5739 5742 5747 5755 5760 5765 5769 5769 5773 5774 5776